FLOCK 2K-21

Last updated on Wed Feb 14 2018 16:20:52 GMT+0000 (Coordinated Universal Time)

1 42860U 17042AM 18045.19502873 .00006900 00000-0 20099-3 0 9995 2 42860 96.9927 307.9891 0010009 187.8110 172.2980 15.35641035 32756
UTC large
Height (km)
Speed (km/s)
/
Latitude / Longitude
Inclination (degrees)
Orbital Period (minutes)
Azimuth
Elevation
Range (km)
Doppler Factor

Next 0 passes for location: London (51.5072 / 0.1276)

Sorry there are no passes over London.